www.pogodaiklimat.ru

Погода и климат >> Архив погоды >> Мексика >> Ejido Nuevo Leon


ПОГОДА в Ejido Nuevo Leon

  • Прогноз погоды в Ejido Nuevo Leon
  • Монитор погоды в Ejido Nuevo Leon
  • Климат города

АРХИВ ПОГОДЫ в Ejido Nuevo Leon

Время (UTC), дата Ветер
(напр.,м/с)
 
Видим.   Явления Облачность Т
(С)
Тd
(С)
f
(%)
Тe
(С)
Тes
(С)
Комфортность P
(гПа)
Po
(гПа)
Тmin
(С)
Tmax
(С)
R
(мм)
R24
(мм)
S
(см)
18 17.09 СВ 1 10 км ясно +37.2 +24.9 50 +51 +66 опасность
перегрева
1009.2 1007.9 +25.2 +39.2
21 17.09 В 2 10 км ясно +41.8 +26.5 43 +58 +72 опасность
перегрева
1006.5 1005.2
00 18.09 ЮВ 2 10 км ясно +42.2 +25.4 39 +55 +58 опасность
перегрева
1004.6 1003.3 +25.2 +43.6
03 18.09 В 1 10 км ясно +36.8 +27.3 58 +55 +55 опасность
перегрева
1004.7 1003.5
06 18.09 С 2 2000 м ясно +30.4 +26.8 81 +47 +47 опасность
перегрева
1006.7 1005.4 +25.2 +43.6
09 18.09 С 1 2000 м ясно +26.2 +25.9 98 +39 +39 очень
душно
1006.7 1005.5
15 18.09 В 1 10 км ясно +26.2 +21.1 74 +33 +35 очень
душно
1009.2 1007.9
18 18.09 ЮВ 3 10 км ясно +36.0 +29.0 67 +59 +70 опасность
перегрева
1008.9 1007.6 +23.6 +36.2
21 18.09 ЮВ 4 10 км ясно +39.4 +29.6 58 +64 +73 опасность
перегрева
1006.4 1005.1
00 19.09 ЮВ 3 10 км ясно +38.8 +28.3 56 +60 +62 опасность
перегрева
1004.3 1003.0 +23.6 +40.0
03 19.09 ЮВ 3 2000 м ясно +31.8 +26.8 75 +49 +49 опасность
перегрева
1004.7 1003.4
06 19.09 ЮВ 2 2000 м ясно +30.2 +27.7 87 +49 +49 опасность
перегрева
1005.2 1003.9 +40.0
09 19.09 СВ 1 2000 м ясно +29.2 +28.1 94 +49 +49 опасность
перегрева
1004.8 1003.5
12 19.09 СВ 1 2000 м ясно +27.8 +26.7 94 +43 +43 опасность
перегрева
1004.6 1003.3 +27.4
15 19.09 С 1 10 км 5/0
[Ac trans]
+28.6 +26.9 91 +45 +46 опасность
перегрева
1006.0 1004.7
18 19.09 ЮВ 4 10 км 4/0
[Ac trans]
+35.2 +26.7 62 +53 +59 опасность
перегрева
1006.6 1005.3 +27.4 +35.7
21 19.09 Ю 5 10 км ясно +37.4 +24.8 49 +50 +58 опасность
перегрева
1003.9 1002.6
00 20.09 ЮВ 5 10 км ясно +34.8 +24.0 54 +47 +48 опасность
перегрева
1002.3 1001.0 +27.4 +37.6
03 20.09 ЮВ 3 2000 м ясно +30.4 +24.4 70 +42 +42 опасность
перегрева
1003.9 1002.6
06 20.09 Ю 2 2000 м ясно +28.7 +25.7 84 +43 +43 опасность
перегрева
1005.1 1003.8 +37.6
09 20.09 В 2 2000 м ясно +26.9 +25.9 94 +40 +40 очень
душно
1005.6 1004.3
12 20.09 В 1 2000 м ясно +26.1 +26.0 99 +39 +39 очень
душно
1006.2 1004.4 +25.8 +37.6
15 20.09 В 1 10 км ясно +27.2 +25.5 90 +40 +42 очень
душно
1008.5 1007.2
18 20.09 Ю 2 10 км ясно +32.8 +27.0 72 +51 +64 опасность
перегрева
1009.7 1008.4 +25.8 +33.8
21 20.09 ЮВ 3 10 км 4/0
[Ac trans]
+36.8 +26.6 56 +54 +62 опасность
перегрева
1008.0 1006.7
00 21.09 В 2 10 км ясно +37.4 +26.1 53 +53 +56 опасность
перегрева
1006.6 1005.3 +25.8 +38.2
03 21.09 Ю 2 2000 м ясно +33.2 +26.0 66 +49 +49 опасность
перегрева
1008.1 1006.8
06 21.09 Ю 2 2000 м ясно +30.0 +25.2 76 +44 +44 опасность
перегрева
1009.3 1008.0 +38.2
09 21.09 В 2 2000 м ясно +27.2 +25.5 90 +40 +40 очень
душно
1009.5 1008.2
12 21.09 ЮВ 1 2000 м ясно +26.2 +24.8 92 +37 +37 очень
душно
1010.6 1009.3 +25.8 +38.2
15 21.09 ЮВ 1 10 км ясно +28.2 +25.1 83 +41 +43 опасность
перегрева
1012.8 1011.5
18 21.09 ЮВ 3 10 км ясно +35.1 +26.4 61 +52 +62 опасность
перегрева
1013.3 1012.0 +25.6 +35.3
21 21.09 ЮВ 3 10 км ясно +39.3 +24.2 42 +50 +62 опасность
перегрева
1011.1 1009.8
00 22.09 В 3 10 км ясно +39.4 +21.7 36 +47 +49 опасность
перегрева
1009.7 1008.4 +25.6 +40.2
03 22.09 Ю 2 2000 м ясно +33.5 +25.8 64 +49 +49 опасность
перегрева
1010.3 1009.0
06 22.09 Ю 1 2000 м ясно +29.6 +24.4 74 +42 +42 опасность
перегрева
1011.2 1009.9 +40.2
09 22.09 В 2 2000 м ясно +25.4 +21.8 80 +33 +33 очень
душно
1010.6 1009.3
12 22.09 З 1 2000 м ясно +23.5 +21.9 91 +30 +30 очень
душно
1010.6 1009.3 +23.0 +40.2
15 22.09 З 1 10 км ясно +25.8 +22.8 84 +34 +36 очень
душно
1011.3 1010.0
18 22.09 С 2 10 км ясно +37.6 +26.0 52 +53 +66 опасность
перегрева
1011.6 1010.3 +23.0 +39.1
21 22.09 С 1 10 км ясно +41.4 +25.0 40 +54 +70 опасность
перегрева
1008.8 1007.5
00 23.09 СВ 1 10 км ясно +42.2 +26.0 40 +56 +59 опасность
перегрева
1006.6 1005.3 +23.0 +43.7
03 23.09 ЮЗ 1 2000 м ясно +34.8 +27.4 66 +54 +54 опасность
перегрева
1006.3 1005.0
06 23.09 С 2 2000 м ясно +31.8 +21.8 55 +40 +40 очень
душно
1006.9 1005.6 +23.0 +43.7
09 23.09 ЮЗ 1 2000 м ясно +28.8 +23.0 71 +39 +39 очень
душно
1006.9 1005.6
12 23.09 СЗ 1 2000 м ясно +26.2 +19.7 67 +32 +32 очень
душно
1006.6 1005.3 +23.0 +43.7
15 23.09 ЮВ 1 10 км ясно +26.0 +7.8 31 +26 +28 жарко 1007.9 1006.6
21 23.09 ЮЗ 2 10 км ясно +41.7 +25.9 41 +56 +69 опасность
перегрева
1006.1 1004.8
00 24.09 В 2 10 км ясно +41.5 +25.3 40 +54 +57 опасность
перегрева
1003.7 1002.4 +23.0 +42.5
03 24.09 ЮВ 2 200 м ясно +34.4 +26.4 63 +51 +51 опасность
перегрева
1004.0 1002.8
06 24.09 С 2 200 м ясно +30.5 +25.6 75 +45 +45 опасность
перегрева
1005.5 1004.2 +23.0 +42.5
09 24.09 В 2 200 м ясно +27.7 +25.9 90 +41 +41 опасность
перегрева
1005.8 1004.5
12 24.09 СВ 1 200 м ясно +24.9 +24.5 98 +35 +35 очень
душно
1006.1 1004.8 +24.4 +42.5

 

Местоположение метеостанции Ejido Nuevo Leon (Мексика): широта 32.40 долгота -115.10 высота над уровнем моря 11 м.

В архиве по умолчанию представлена погода в Ejido Nuevo Leon за последнюю неделю. Архивные данные за месяц целиком и за предыдущие месяцы, начиная с января 2011 года, Вы можете получить, выбрав интересующий диапазон дат из раскрывающегося списка и нажав кнопку "Ввод!".


*Определитесь, кто Вы:
робот инопланетянин человек

Внимание! Время в таблицах - всемирное. Для получения местного времени необходимо прибавить поправку, которая в Ejido Nuevo Leon равна -8 ч.

Смотрите также архив погоды в соседних городах и на ближайших метеорологических станциях:

Погода в San Felipe (Мексика) (155 км)
Погода в Puerto Penasco (Мексика) (191 км)
Погода в Altar Son (Мексика) (362 км)
Погода в Hermosillo (Мексика) (534 км)
Погода в Hermosillo la Magna (Мексика) (542 км)
Погода в Pilares de Nacoz (Мексика) (562 км)
Погода в Santa Rosalia (Мексика) (632 км)
Погода в Guaymas (Мексика) (643 км)
Погода в Empalme (Мексика) (651 км)
Погода в Nueva Casas Grandes (Мексика) (720 км)

Пояснения к столбцам:

Ветер - указаны скорость ветра в м/с - средняя за 10 мин, порывы в срок и между сроками (в фигурных скобках) и направление, откуда дует ветер: С - северный, СВ - северо-восточный, В - восточный, ЮВ - юго-восточный, Ю - южный, ЮЗ - юго-западный, З - западный, СЗ - северо-западный.
Видимость - горизонтальная дальность видимости в метрах или километрах. При видимости от 1 до 10 км при отсутствии осадков обычно наблюдается дымка, при ухудшении видимости до 1 км и менее - туман. В сухую погоду видимость может ухудшаться дымом, пылью или мглою.
Явления - указаны атмосферные явления, наблюдавшиеся в срок или в последний час перед сроком; фигурными скобками обозначены явления, наблюдавшиеся между сроками (за 1-3 часа до срока); квадратными скобками обозначены град или гололедные отложения с указанием их диаметра в мм.
Облачность - указаны через наклонную черту общая и нижняя облачность в баллах и высота нижней границы облаков в метрах; квадратными скобками обозначены формы облаков: Ci - перистые, Cs - перисто-слоистые, Cc - перисто-кучевые, Ac - высококучевые, As - высокослоистые, Sc - слоисто-кучевые, Ns - слоисто-дождевые, Cu - кучевые, Cb - кучево-дождевые. Подробнее классификацию облаков см. в Атласе облаков (PDF).
T - Температура воздуха - температура, измеренная на высоте 2 м над землей.
Td - Температура точки росы - температура, при понижении до которой содержащийся в воздухе водяной пар достигнет насыщения.
f - Относительная влажность воздуха - влажноcть воздуха, измеренная на высоте 2 м над землей.
Te - Эффективная температура - температура, которую ощущает одетый по сезону человек в тени. Характеристика душности погоды. При расчете учитывается влияние влажности воздуха и скорости ветра на теплоощущения человека.
Tes - Эффективная температура на солнце - температура, которую ощущает человек, с поправкой на солнечный нагрев. Характеристика знойности погоды. Зависит от высоты солнца над горизонтом, облачности и скорости ветра. Ночью, в пасмурную погоду, а также при ветре 12 м/с и более поправка равна нулю.
P - Атмосферное давление - приведенное к уровню моря атмосферное давление.
Po - Атмосферное давление - измеренное на уровне метеостанции атмосферное давление.
Tmin - Минимальная температура - минимум температуры воздуха на высоте 2 м над землей.
Tmax - Максимальная температура - максимум температуры воздуха на высоте 2 м над землей.
R - Количество осадков - Количество выпавших осадков за период времени, мм. При наведении курсора мыши на число - период времени, за который выпало указанное количество осадков.
R24 - Количество осадков - Количество выпавших осадков за 24 часа, мм.
S - Снежный покров - Высота снежного покрова, см. При наведении курсора мыши на число - состояние снежного покрова и степень покрытия местности в баллах.